ND5T Weather Reports


time (UTC)temp
F
wind
direction
speed
knots
gust
knots
rain 1hr
in
rain 24hr
in
rain mn
in
humidity
%
barometer
mb
20260502170118 68 32 0.0 3.5 0.00 0.85 0.01 61 1021.0
20260502163048 67 18 0.0 2.6 0.00 0.99 0.01 64 1021.1
20260502161557 67 45 0.0 2.6 0.00 0.99 0.01 68 1021.0
20260502160118 65 116 0.0 3.5 0.00 0.99 0.01 76 1021.0
20260502151606 62 350 0.0 1.7 0.00 1.06 0.01 90 1020.9
20260502140118 56 88 0.0 0.9 0.00 1.24 0.01 97 1020.6
20260502130115 52 178 0.0 0.0 0.00 1.85 0.01 97 1019.7
20260502123004 51 178 0.0 0.0 0.00 2.27 0.01 97 1019.1
20260502121518 50 178 0.0 0.0 0.00 2.27 0.01 97 1019.1
20260502120113 50 178 0.0 0.0 0.01 2.27 0.01 96 1019.1
20260502114518 50 178 0.0 0.0 0.01 2.46 0.01 96 1018.8
20260502113025 50 177 0.0 0.0 0.01 2.46 0.01 97 1018.7
20260502111541 50 177 0.0 0.0 0.01 2.46 0.01 97 1018.4
20260502110051 50 177 0.0 0.0 0.00 2.45 0.00 96 1018.2
20260502104502 51 177 0.0 0.0 0.00 2.74 0.00 96 1018.2
20260502103031 51 177 0.0 0.0 0.00 2.74 0.00 96 1018.0
20260502101600 51 177 0.0 0.0 0.00 2.74 0.00 96 1017.7
20260502091527 51 177 0.0 0.0 0.00 2.98 0.00 96 1016.7
20260502070107 53 177 0.0 0.0 0.00 3.24 0.00 96 1016.5
20260502064505 53 177 0.0 0.0 0.00 3.26 0.00 96 1016.4
20260502063018 53 177 0.0 0.0 0.00 3.26 0.00 96 1016.2
20260502061551 53 177 0.0 0.9 0.00 3.26 0.00 96 1016.3
20260502060113 53 177 0.0 0.9 0.00 3.26 0.00 96 1016.3
20260502054506 53 177 0.0 2.6 0.00 3.46 0.00 96 1016.3
20260502053036 53 12 0.0 0.0 0.00 3.46 0.00 97 1016.5
20260502051610 54 12 0.0 2.6 0.00 3.46 0.00 96 1016.4
20260502050142 54 218 0.0 1.7 0.00 3.46 0.00 96 1016.4
20260502044543 54 218 0.0 2.6 0.00 3.48 3.46 97 1016.2
20260502043002 54 5 0.0 1.7 0.00 3.48 3.46 97 1016.3
20260502041601 54 5 0.0 0.9 0.00 3.48 3.46 97 1016.5
20260502040047 54 5 0.0 1.7 0.00 3.48 3.46 97 1016.3
20260502034556 55 5 0.0 1.7 0.00 3.48 3.46 97 1016.1
20260502033051 55 5 0.0 1.7 0.02 3.48 3.46 97 1016.0
20260502031530 55 308 0.0 1.7 0.04 3.48 3.46 97 1015.5
20260502030014 55 293 0.0 0.9 0.08 3.48 3.46 97 1014.9
20260502024555 55 355 0.0 1.7 0.13 3.48 3.46 97 1015.0
20260502023006 55 355 0.0 0.9 0.15 3.46 3.44 97 1015.0
20260502021555 55 355 0.0 0.9 0.13 3.43 3.42 97 1014.9
20260502020111 55 355 0.0 0.9 0.11 3.40 3.39 97 1014.6
20260502014534 55 355 0.0 1.7 0.07 3.34 3.33 97 1013.8
20260502013059 56 334 0.0 1.7 0.06 3.31 3.29 96 1014.6
20260502011532 56 336 0.0 2.6 0.08 3.30 3.28 97 1013.5
20260502010054 56 102 0.0 1.7 0.10 3.29 3.27 97 1012.9
20260502004557 57 105 0.0 0.9 0.10 3.27 3.25 97 1013.5
20260502003025 57 115 0.0 0.0 0.12 3.25 3.23 97 1013.3
20260502001555 57 115 0.0 1.7 0.17 3.22 3.20 97 1012.5
20260502000115 57 116 0.0 0.9 0.14 3.19 3.17 97 1012.3
20260501234501 57 117 0.0 0.9 0.12 3.17 3.15 96 1012.3
20260501233019 57 105 0.0 1.7 0.09 3.13 3.11 96 1012.3
20260501231615 58 229 0.0 1.7 0.02 3.05 3.03 97 1013.0
20260501230124 58 101 0.0 1.7 0.03 3.05 3.03 97 1010.4
20260501224535 58 59 0.0 2.6 0.06 3.05 3.03 96 1011.0
20260501223057 58 346 0.0 0.9 0.05 3.04 3.02 96 1010.9
20260501221534 58 346 0.0 0.9 0.06 3.03 3.01 97 1012.4
20260501220105 59 5 0.0 1.7 0.07 3.02 3.00 97 1012.5
20260501214559 59 5 0.0 0.9 0.07 2.99 2.97 97 1012.3
20260501213013 59 5 0.0 1.7 0.11 2.99 2.97 97 1011.2
20260501211601 59 5 0.0 2.6 0.11 2.97 2.96 97 1010.4
20260501210118 59 167 0.0 0.9 0.11 2.95 2.93 96 1011.5
20260501204546 60 167 0.0 1.7 0.09 2.92 2.90 97 1011.0
20260501203048 60 156 0.0 2.6 0.06 2.88 2.86 97 1011.1
20260501201559 60 201 0.0 1.7 0.09 2.86 2.84 97 1010.9
20260501200121 60 11 0.0 1.7 0.11 2.84 2.82 97 1010.6
20260501194539 60 11 0.0 0.9 0.14 2.83 2.81 97 1010.6
20260501193055 60 125 0.0 0.9 0.14 2.82 2.80 97 1009.4
20260501191532 60 125 0.0 0.9 0.10 2.77 2.75 97 1009.6
20260501190129 60 125 0.0 0.9 0.05 2.72 2.70 97 1010.3
20260501184550 60 125 0.0 2.6 0.03 2.69 2.67 97 1009.6
20260501183109 60 169 0.0 2.6 0.02 2.68 2.66 97 1009.1
20260501181532 60 99 0.0 0.9 0.01 2.67 2.65 97 1009.6
20260501180100 60 351 0.0 1.7 0.03 2.67 2.65 97 1010.2
20260501174522 60 36 0.0 2.6 0.05 2.67 2.64 97 1010.9
20260501173048 60 355 0.0 1.7 0.11 2.67 2.64 97 1011.1